FW6927 Weather Reports


time (UTC)temp
C
wind
direction
speed
KPH
gust
KPH
rain 1hr
cm
rain 24hr
cm
rain mn
cm
humidity
%
barometer
mb
20260505024524 12 322 1.6 4.8 0.00 0.00 0.00 80 1013.3
20260505023519 12 304 1.6 4.8 0.00 0.00 0.00 80 1013.4
20260505022550 12 281 3.2 6.4 0.00 0.00 0.00 79 1013.3
20260505021551 12 336 1.6 6.4 0.00 0.00 0.00 78 1013.4
20260505020551 12 280 3.2 6.4 0.00 0.00 0.00 77 1013.3
20260505015545 12 0.0 1.6 0.00 0.00 0.00 76 1013.3
20260505014525 12 303 3.2 4.8 0.00 0.00 0.00 76 1013.3
20260505013525 13 279 3.2 6.4 0.00 0.00 0.00 74 1013.1
20260505012526 13 294 1.6 3.2 0.00 0.00 0.00 74 1013.0
20260505011525 13 267 1.6 4.8 0.00 0.00 0.00 72 1012.6
20260505010526 13 307 1.6 3.2 0.00 0.00 0.00 71 1012.6
20260505005540 13 328 3.2 8.0 0.00 0.00 0.00 69 1012.4
20260505004532 13 336 1.6 4.8 0.00 0.00 0.00 67 1012.3
20260505003533 13 287 3.2 4.8 0.00 0.00 0.00 66 1012.1
20260505002528 14 331 3.2 4.8 0.00 0.00 0.00 64 1011.6
20260505001528 14 280 3.2 9.7 0.00 0.00 0.00 63 1011.6
20260505000529 15 174 1.6 4.8 0.00 0.00 0.00 61 1011.5
20260504235528 15 310 3.2 4.8 0.00 0.00 0.00 59 1011.4
20260504234528 15 321 3.2 6.4 0.00 0.00 0.00 58 1011.3
20260504233527 16 89 4.8 6.4 0.00 0.00 0.00 57 1011.3
20260504232527 16 309 4.8 11.3 0.00 0.00 0.00 55 1010.9
20260504231521 16 315 6.4 12.9 0.00 0.00 0.00 54 1010.9
20260504230516 17 49 4.8 9.7 0.00 0.00 0.00 54 1010.9
20260504225536 17 289 4.8 11.3 0.00 0.00 0.00 53 1010.8
20260504224516 17 323 3.2 9.7 0.00 0.00 0.00 53 1010.7
20260504223517 17 315 4.8 9.7 0.00 0.00 0.00 52 1010.7
20260504222517 18 302 4.8 11.3 0.00 0.00 0.00 52 1010.6
20260504221518 18 306 6.4 14.5 0.00 0.00 0.00 51 1010.4
20260504220518 18 298 4.8 9.7 0.00 0.00 0.00 51 1010.4
20260504215518 19 287 4.8 11.3 0.00 0.00 0.00 50 1010.4
20260504214517 19 264 4.8 6.4 0.00 0.00 0.00 49 1010.4
20260504213523 19 223 6.4 9.7 0.00 0.00 0.00 49 1010.4
20260504212517 19 313 4.8 4.8 0.00 0.00 0.00 49 1010.4
20260504211523 20 314 4.8 12.9 0.00 0.00 0.00 48 1010.2
20260504210524 20 285 6.4 9.7 0.00 0.00 0.00 47 1010.2
20260504205524 20 294 4.8 9.7 0.00 0.00 0.00 46 1010.2
20260504204524 20 347 6.4 14.5 0.00 0.00 0.00 44 1010.1
20260504203524 21 300 4.8 8.0 0.00 0.00 0.00 44 1010.1
20260504202605 21 6 4.8 8.0 0.00 0.00 0.00 43 1010.1
20260504201525 22 260 4.8 8.0 0.00 0.00 0.00 41 1010.1
20260504200525 23 300 3.2 6.4 0.00 0.00 0.00 39 1010.1
20260504195525 24 212 4.8 6.4 0.00 0.00 0.00 35 1010.1
20260504194540 25 312 4.8 11.3 0.00 0.00 0.00 36 1010.1
20260504193532 25 285 4.8 6.4 0.00 0.00 0.00 35 1010.2
20260504192533 25 324 4.8 9.7 0.00 0.00 0.00 35 1010.1
20260504191533 25 290 4.8 8.0 0.00 0.00 0.00 35 1010.2
20260504190529 25 265 4.8 6.4 0.00 0.00 0.00 35 1010.3
20260504185529 25 240 4.8 8.0 0.00 0.00 0.00 36 1010.4
20260504184529 25 287 6.4 14.5 0.00 0.00 0.00 34 1010.4
20260504183529 25 264 8.0 12.9 0.00 0.00 0.00 33 1010.6
20260504182529 25 307 6.4 12.9 0.00 0.00 0.00 34 1010.9
20260504181529 26 247 4.8 11.3 0.00 0.00 0.00 35 1010.9
20260504180543 25 258 4.8 8.0 0.00 0.00 0.00 35 1011.2
20260504175517 25 271 4.8 8.0 0.00 0.00 0.00 35 1011.1
20260504174517 25 304 6.4 14.5 0.00 0.00 0.00 34 1010.9
20260504173517 26 227 6.4 14.5 0.00 0.00 0.00 34 1010.9
20260504172538 26 265 6.4 8.0 0.00 0.00 0.00 33 1010.9
20260504171518 26 229 3.2 6.4 0.00 0.00 0.00 35 1011.1
20260504170518 25 291 6.4 9.7 0.00 0.00 0.00 34 1011.1
20260504150522 24 234 6.4 12.9 0.00 0.00 0.00 37 1012.4
20260504140529 20 231 4.8 8.0 0.00 0.00 0.00 43 1013.1
20260504130517 18 329 3.2 6.4 0.00 0.00 0.00 47 1013.4
20260504110520 7 325 1.6 3.2 0.00 0.00 0.00 76 1013.6
20260504100527 2 0.0 0.0 0.00 0.00 0.00 94 1013.3
20260504081533 4 0.0 0.0 0.00 0.00 0.00 89 1013.0
20260504080517 4 0.0 0.0 0.00 0.00 0.00 91 1013.1
20260504050518 2 0.0 0.0 0.00 0.00 0.00 92 1013.1
20260504045524 2 0.0 0.0 0.00 0.00 0.00 94 1013.1
20260504044524 2 0.0 0.0 0.00 0.00 0.00 91 1013.1
20260504043524 2 0.0 0.0 0.00 0.00 0.00 91 1013.1
20260504042524 2 0.0 0.0 0.00 0.00 0.00 91 1013.0
20260504041520 2 0.0 0.0 0.00 0.00 0.00 91 1013.0
20260504040519 2 0.0 0.0 0.00 0.00 0.00 88 1012.9
20260504035519 2 0.0 0.0 0.00 0.00 0.00 88 1012.9
20260504034518 2 0.0 0.0 0.00 0.00 0.00 87 1012.9
20260504033525 3 0.0 0.0 0.00 0.00 0.00 87 1012.8
20260504032539 3 0.0 0.0 0.00 0.00 0.00 86 1012.6
20260504031525 3 0.0 0.0 0.00 0.00 0.00 86 1012.6
20260504030546 3 0.0 0.0 0.00 0.00 0.00 84 1012.6
20260504025526 3 0.0 0.0 0.00 0.00 0.00 85 1012.5